Aérodrome :
LOGIN :

S'inscrire | Disclaimer

   EN    FR    IT 

 










Légende :    VFR   VFR Marginal   IFR   IFR Intensif   IFR Très Intensif
Visi : 
Plafond : 
>= 8 km
>= 3000ft
5 à 8 km
1000 à 3000 ft
1500m à 5 km
500 à 1000 ft
800 à 1500m
200 à 500 ft
< 800m
< 200 ft
Symboles :   Orages  Brouillard  Fortes neiges  Fortes précipitations  Vent > 20 kt
SIGMETs :   Divers  Orages  Givrage  Turbulence  Onde Orograph.  Cendres Volcan.







- Altitude de l'aérodrome : 788 ft
- Code IATA : DCM
- Voir les cartes d'approche


LFCK - Castres-Mazamet

DERNIER METAR :
  • 210630Z AUTO 28006KT 6000 OVC004 11/10 Q1018 BECMG BKN014

METARs EXPIRÉS :
  • 210600Z AUTO 28006KT 9999 OVC005 11/10 Q1018 BECMG BKN014
  • 210530Z AUTO 27003KT 9999 OVC007 11/09 Q1018 BECMG BKN014
  • 210500Z AUTO 29003KT 9999 OVC007 11/09 Q1017
  • 210430Z AUTO 29003KT 9999 OVC008 10/09 Q1017
  • 210400Z AUTO 31003KT 9999 OVC010 10/09 Q1017

TAF AMD TAF LFCK
Valide du 21 à 06h jusqu'au 21 à 15h UTC


210613Z 2106/2115 30004KT 9999 OVC004
BECMG 2108/2110 BKN014
TEMPO 2110/2115 SCT020
Pas de NOTAMs connus pour ce terrain.



MET'MAP, la Météo Aéronautique d'un coup d'oeil ! - Copyright ORBIFLY Décembre 2007 - Disclaimer

ORBIFLY MET'MAP TEAM :

Programmation & Développement : Alexandra Zaïnal
Conception & Développement : Baudouin d'Aumeries
Co-Programmation & Développement : Marc-Olivier Méhu
Soutien technique & logistique : Manuel Goepfert

Contact : metmap@orbifly.com




SOURCES & CREDITS :

   NOAA